When you browse on this site, cookies collect data to enhance your experience and personalize the content and advertising you see.
Visit our Privacy Policy to learn more. By continuing to use the site, you agree to this use of cookies and data.
  • In Switzerland
  • List of Countries
  • For 7 days
  • Water Temperature
  • Satellite Maps
  • Weather Map
  • Weather Widgets
  • user-avatar
    Login

    Hourly Weather Maloe Hrenovo

    Today, 18 November, Sunday

    Time Temperature Precipitation Wind Pressure Humidity
    00:00 -3°C° 0 mm 4 mps 755 mmHg 48%
    01:00 -3°C° 0.1 mm 4 mps 755 mmHg 53%
    02:00 -3°C° 0.1 mm 4 mps 754 mmHg 57%
    03:00 -3°C° 0 mm 4 mps 753 mmHg 63%
    04:00 -3°C° 0.1 mm 4 mps 753 mmHg 64%
    05:00 -3°C° 0.1 mm 4 mps 752 mmHg 66%
    06:00 -3°C° 0.1 mm 4 mps 752 mmHg 67%
    07:00 -2°C° 0 mm 3 mps 752 mmHg 68%
    08:00 -2°C° 0 mm 3 mps 752 mmHg 68%
    09:00 -2°C° 0 mm 3 mps 752 mmHg 64%
    10:00 -1°C° 0 mm 3 mps 752 mmHg 65%
    11:00 -1°C° 0 mm 3 mps 752 mmHg 66%
    12:00 -1°C° 0 mm 3 mps 752 mmHg 67%
    13:00 -1°C° 0 mm 2 mps 752 mmHg 69%
    14:00 -1°C° 0 mm 2 mps 752 mmHg 71%
    15:00 -1°C° 0 mm 2 mps 752 mmHg 73%
    16:00 -1°C° 0 mm 2 mps 753 mmHg 76%
    17:00 -1°C° 0 mm 2 mps 753 mmHg 79%
    18:00 0°C° 0 mm 1 mps 753 mmHg 82%
    19:00 0°C° 0 mm 1 mps 753 mmHg 83%
    20:00 0°C° 0 mm 1 mps 754 mmHg 85%
    21:00 0°C° 0 mm 1 mps 754 mmHg 87%
    22:00 0°C° 0 mm 1 mps 754 mmHg 88%
    23:00 0°C° 0 mm 1 mps 754 mmHg 89%

    Tomorrow, 19 November, Monday

    Time Temperature Precipitation Wind Pressure Humidity
    00:00 0°C° 0 mm 1 mps 755 mmHg 89%
    01:00 0°C° 0 mm 1 mps 755 mmHg 90%
    02:00 0°C° 0 mm 1 mps 755 mmHg 91%
    03:00 0°C° 0 mm 1 mps 755 mmHg 92%
    04:00 0°C° 0 mm 1 mps 756 mmHg 92%
    05:00 0°C° 0 mm 1 mps 756 mmHg 93%
    06:00 0°C° 0 mm 1 mps 756 mmHg 93%
    07:00 0°C° 0 mm 1 mps 756 mmHg 93%
    08:00 +1°C° 0 mm 1 mps 757 mmHg 92%
    09:00 +1°C° 0 mm 1 mps 757 mmHg 92%
    10:00 +1°C° 0 mm 1 mps 757 mmHg 89%
    11:00 +2°C° 0 mm 1 mps 758 mmHg 86%
    12:00 +3°C° 0 mm 1 mps 758 mmHg 83%
    13:00 +2°C° 0 mm 1 mps 758 mmHg 85%
    14:00 +2°C° 0 mm 1 mps 758 mmHg 87%
    15:00 +2°C° 0 mm 1 mps 758 mmHg 89%
    16:00 +2°C° 0 mm 1 mps 758 mmHg 91%
    17:00 +1°C° 0 mm 1 mps 759 mmHg 92%
    18:00 +1°C° 0 mm 1 mps 759 mmHg 93%
    19:00 +1°C° 0 mm 1 mps 759 mmHg 94%
    20:00 +1°C° 0 mm 1 mps 759 mmHg 94%
    21:00 +1°C° 0 mm 1 mps 759 mmHg 95%
    22:00 -1°C° 0 mm 2 mps 759 mmHg 95%
    23:00 -1°C° 0 mm 2 mps 759 mmHg 95%

    Day after tomorrow, 20 November, Tuesday

    Time Temperature Precipitation Wind Pressure Humidity
    00:00 -1°C° 0 mm 2 mps 759 mmHg 96%
    01:00 -1°C° 0 mm 2 mps 759 mmHg 95%
    02:00 -2°C° 0 mm 2 mps 759 mmHg 95%
    03:00 -2°C° 0 mm 2 mps 759 mmHg 95%
    04:00 -2°C° 0 mm 2 mps 759 mmHg 94%
    05:00 -2°C° 0 mm 2 mps 758 mmHg 93%
    06:00 -2°C° 0 mm 2 mps 758 mmHg 91%
    07:00 -2°C° 0 mm 2 mps 758 mmHg 90%
    08:00 -2°C° 0 mm 2 mps 758 mmHg 89%
    09:00 -2°C° 0 mm 2 mps 758 mmHg 88%
    10:00 -2°C° 0 mm 2 mps 758 mmHg 85%
    11:00 -1°C° 0 mm 2 mps 758 mmHg 81%
    12:00 -1°C° 0 mm 2 mps 758 mmHg 78%
    13:00 -1°C° 0 mm 2 mps 757 mmHg 78%
    14:00 -1°C° 0 mm 2 mps 757 mmHg 77%
    15:00 -1°C° 0 mm 2 mps 757 mmHg 77%
    16:00 -2°C° 0 mm 2 mps 757 mmHg 78%
    17:00 0°C° 0 mm 1 mps 756 mmHg 80%
    18:00 0°C° 0 mm 1 mps 756 mmHg 81%
    19:00 0°C° 0 mm 1 mps 756 mmHg 82%
    20:00 -1°C° 0 mm 1 mps 756 mmHg 83%
    21:00 -1°C° 0 mm 1 mps 756 mmHg 84%
    22:00 -1°C° 0 mm 1 mps 756 mmHg 85%
    23:00 -4°C° 0 mm 2 mps 755 mmHg 86%

    21 November, Wednesday

    Time Temperature Precipitation Wind Pressure Humidity
    00:00 -4°C° 0 mm 2 mps 755 mmHg 87%
    01:00 -4°C° 0 mm 2 mps 755 mmHg 87%
    02:00 -4°C° 0 mm 2 mps 755 mmHg 87%
    03:00 -4°C° 0 mm 2 mps 755 mmHg 87%
    04:00 -5°C° 0 mm 2 mps 755 mmHg 87%
    05:00 -6°C° 0 mm 3 mps 755 mmHg 87%
    06:00 -6°C° 0 mm 3 mps 754 mmHg 87%
    07:00 -6°C° 0 mm 3 mps 754 mmHg 87%
    08:00 -6°C° 0 mm 3 mps 754 mmHg 86%
    09:00 -6°C° 0 mm 3 mps 754 mmHg 86%
    10:00 -5°C° 0 mm 3 mps 754 mmHg 83%
    11:00 -4°C° 0 mm 3 mps 754 mmHg 80%
    12:00 -4°C° 0 mm 3 mps 754 mmHg 78%
    13:00 -4°C° 0 mm 3 mps 754 mmHg 79%
    14:00 -2°C° 0 mm 3 mps 754 mmHg 80%
    15:00 -2°C° 0 mm 3 mps 754 mmHg 82%
    16:00 -2°C° 0 mm 3 mps 754 mmHg 83%
    17:00 -2°C° 0 mm 3 mps 754 mmHg 85%
    18:00 -2°C° 0 mm 3 mps 754 mmHg 87%
    19:00 -4°C° 0 mm 3 mps 754 mmHg 84%
    20:00 -4°C° 0 mm 3 mps 754 mmHg 82%
    21:00 -4°C° 0 mm 3 mps 754 mmHg 80%
    22:00 -4°C° 0 mm 3 mps 754 mmHg 78%
    23:00 -4°C° 0 mm 3 mps 754 mmHg 76%

    22 November, Thursday

    Time Temperature Precipitation Wind Pressure Humidity
    00:00 -4°C° 0 mm 3 mps 754 mmHg 73%
    01:00 -4°C° 0 mm 3 mps 754 mmHg 75%
    02:00 -5°C° 0 mm 3 mps 753 mmHg 76%
    03:00 -5°C° 0 mm 3 mps 753 mmHg 77%
    04:00 -5°C° 0 mm 3 mps 753 mmHg 78%
    05:00 -5°C° 0 mm 4 mps 752 mmHg 80%
    06:00 -7°C° 0 mm 4 mps 752 mmHg 81%
    07:00 -7°C° 0 mm 4 mps 751 mmHg 81%
    08:00 -7°C° 0 mm 5 mps 751 mmHg 81%
    09:00 -7°C° 0 mm 5 mps 751 mmHg 81%
    10:00 -6°C° 0 mm 5 mps 750 mmHg 79%
    11:00 -5°C° 0 mm 6 mps 750 mmHg 76%
    12:00 -5°C° 0 mm 6 mps 750 mmHg 73%
    13:00 -4°C° 0 mm 6 mps 750 mmHg 74%
    14:00 -4°C° 0 mm 5 mps 750 mmHg 75%
    15:00 -4°C° 0 mm 5 mps 750 mmHg 75%
    16:00 -4°C° 0 mm 5 mps 750 mmHg 76%
    17:00 -4°C° 0 mm 5 mps 750 mmHg 78%
    18:00 -4°C° 0 mm 5 mps 750 mmHg 79%
    19:00 -4°C° 0 mm 5 mps 751 mmHg 80%
    20:00 -3°C° 0 mm 4 mps 751 mmHg 80%
    21:00 -3°C° 0 mm 4 mps 752 mmHg 81%
    22:00 -3°C° 0 mm 4 mps 752 mmHg 81%
    23:00 -2°C° 0 mm 3 mps 752 mmHg 82%

    23 November, Friday

    Time Temperature Precipitation Wind Pressure Humidity
    00:00 -4°C° 0 mm 3 mps 753 mmHg 83%
    01:00 -4°C° 0 mm 3 mps 753 mmHg 83%
    02:00 -5°C° 0 mm 3 mps 753 mmHg 84%
    03:00 -5°C° 0 mm 3 mps 754 mmHg 85%
    04:00 -5°C° 0 mm 3 mps 754 mmHg 86%
    05:00 -6°C° 0 mm 3 mps 754 mmHg 88%
    06:00 -6°C° 0 mm 3 mps 755 mmHg 90%
    07:00 -6°C° 0 mm 3 mps 755 mmHg 90%
    08:00 -6°C° 0 mm 3 mps 756 mmHg 90%
    09:00 -6°C° 0 mm 3 mps 756 mmHg 91%
    10:00 -5°C° 0 mm 3 mps 756 mmHg 86%
    11:00 -4°C° 0 mm 3 mps 757 mmHg 81%
    12:00 -3°C° 0 mm 4 mps 757 mmHg 76%
    13:00 -3°C° 0 mm 4 mps 757 mmHg 77%
    14:00 -3°C° 0 mm 4 mps 756 mmHg 78%
    15:00 -3°C° 0 mm 4 mps 756 mmHg 78%
    16:00 -3°C° 0 mm 4 mps 756 mmHg 79%
    17:00 -3°C° 0 mm 4 mps 756 mmHg 80%
    18:00 -3°C° 0 mm 4 mps 756 mmHg 80%
    19:00 -4°C° 0 mm 5 mps 755 mmHg 80%
    20:00 -4°C° 0 mm 5 mps 755 mmHg 80%
    21:00 -4°C° 0 mm 5 mps 755 mmHg 79%
    22:00 -5°C° 0 mm 5 mps 754 mmHg 81%
    23:00 -5°C° 0 mm 5 mps 754 mmHg 83%
    Show more